Regional Weather Roundup
Issued by NWS

Home | Current Version | Previous Version | Text Only | Print | Product List | Glossary Off
Versions: 1 2 3 4 5 6 7 8 9 10 11 12 13 14 15 16 17 18 19 20 21 22 23 24 25 26 27 28 29 30 31 32 33 34 35 36 37 38 39 40 41 42 43 44 45 46 47 48 49 50

000
ASUS43 KDTX 300010
RWRMI
MICHIGAN HOURLY REGIONAL WEATHER ROUNDUP
NATIONAL WEATHER SERVICE DETROIT/PONTIAC MI
800 PM EDT FRI MAY 29 2015

NOTE: "FAIR" INDICATES FEW OR NO CLOUDS BELOW 12,000 FEET WITH NO
SIGNIFICANT WEATHER AND/OR OBSTRUCTION TO VISIBILITY.

MIZ047>049-052>055-059>063-066>070-074>076-081>083-300100-
SOUTHEAST LOWER MICHIGAN

CITY           SKY/WX    TMP DP  RH WIND       PRES   REMARKS
ADRIAN         PTCLDY    81  65  58 SW12      29.99S
6HR MIN TEMP:  78; 6HR MAX TEMP:  84;

ALMA           PTSUNNY   73  68  85 CALM      29.95F
ANN ARBOR      MOCLDY    81  64  56 S9        29.98S
BAD AXE        MOCLDY    76  64  68 S9        29.95F
CARO           MOCLDY    77  66  68 S7        29.94F
DETROIT CITY   PTCLDY    77  66  68 S9        29.99F
6HR MIN TEMP:  70; 6HR MAX TEMP:  81; 6HR PCP:  0.05;

DETROIT        PTCLDY    77  64  64 SE12      29.99F
6HR MIN TEMP:  74; 6HR MAX TEMP:  83;

FLINT          MOCLDY    82  62  50 S8        29.95F
6HR MIN TEMP:  81; 6HR MAX TEMP:  84; 6HR PCP: TRACE;

GROSSE ILE     PTCLDY    73  66  78 SE8       29.98F
HILLSDALE      MOSUNNY   81  63  53 S7        29.99S
HOWELL         PTCLDY    80  61  52 S8        29.97F
6HR MIN TEMP:  79; 6HR MAX TEMP:  83;


CITY           SKY/WX    TMP DP  RH WIND       PRES   REMARKS
JACKSON        MOSUNNY   80  62  54 S9        29.97S
6HR MIN TEMP:  79; 6HR MAX TEMP:  83;

LAMBERTVILLE   PTCLDY    82  63  51 S9        29.99F
LANSING        PTSUNNY   71  68  90 CALM      29.97S
6HR MIN TEMP:  70; 6HR MAX TEMP:  84; 6HR PCP:  0.05;

LAPEER         FAIR      77  65  65 S5        29.97F
MASON          CLOUDY    73  64  74 W6        29.97R
MONROE         PTCLDY    73  64  73 SE7       29.98F
MT. CLEMENS    PTCLDY    73  65  76 SE12      29.98F
6HR MIN TEMP:  71; 6HR MAX TEMP:  77; 6HR PCP:  0.05;

PONTIAC        MOCLDY    79  67  66 SE10      29.97F
6HR MIN TEMP:  74; 6HR MAX TEMP:  81; 6HR PCP: TRACE;

PORT HOPE        N/A     77  65  66 S6        29.93F
6HR MIN TEMP:  70; 6HR MAX TEMP:  85;

PORT HURON     PTCLDY    75  66  73 SE7       29.99F
TRI CITIES     CLOUDY    73  68  84 SW5       29.96R
6HR MIN TEMP:  72; 6HR MAX TEMP:  87; 6HR PCP:  0.06;

MIDLAND        PTSUNNY   73  68  85 CALM      29.94S
TROY           PTCLDY    81  67  64 S10       30.00F
SAGINAW HB     HVY RAIN  73  68  83 SW18G31   29.96R
$$
MIZ043>046-050>051-056>058-064>065-071>073-077>080-300100-
SOUTHWEST LOWER MICHIGAN

CITY           SKY/WX    TMP DP  RH WIND       PRES   REMARKS
BATTLE CREEK   MOSUNNY   75  70  84 S3        29.96F
6HR MIN TEMP:  71; 6HR MAX TEMP:  84; 6HR PCP:  0.23;

BENTON HARBOR  CLOUDY    76  66  71 W17G24    29.92R
6HR MIN TEMP:  68; 6HR MAX TEMP:  83; 6HR PCP:  0.04;

BIG RAPIDS     CLOUDY    69  65  87 SE3       29.93F
6HR MIN TEMP:  68; 6HR MAX TEMP:  81; 6HR PCP:  0.16;

COLDWATER      MOSUNNY   80  60  51 S6        29.97R
6HR MIN TEMP:  79; 6HR MAX TEMP:  83;

FREMONT        CLOUDY    73  66  81 SE6       29.91F
HOLLAND        PTSUNNY   76  70  82 SE8       29.92F
6HR MIN TEMP:  71; 6HR MAX TEMP:  82; 6HR PCP:  0.37;

GRAND RAPIDS   PTSUNNY   74  69  85 SE6       29.94F
6HR MIN TEMP:  71; 6HR MAX TEMP:  84; 6HR PCP:  0.16;

IONIA          CLOUDY    75  68  79 S6        29.94F
KALAMAZOO      PTSUNNY   77  70  79 SE3       29.94F
6HR MIN TEMP:  72; 6HR MAX TEMP:  84; 6HR PCP:  0.08;

LUDINGTON      RAIN      70  65  85 SW9       29.92R
6HR MIN TEMP:  70; 6HR MAX TEMP:  78; 6HR PCP:  0.01;

MARSHALL       CLOUDY    81  62  53 S7        29.96R
MOUNT PLEASANT CLOUDY    72  67  85 SW5       29.93F
6HR MIN TEMP:  71; 6HR MAX TEMP:  84; 6HR PCP:  0.01;

MUSKEGON       PTSUNNY   75  67  76 SE9       29.91S
6HR MIN TEMP:  73; 6HR MAX TEMP:  81; 6HR PCP: TRACE;

SOUTH HAVEN    CLOUDY    78  67  68 CALM      29.92S
$$
MIZ016>042-300100-
NORTHERN LOWER MICHIGAN

CITY           SKY/WX    TMP DP  RH WIND       PRES   REMARKS
ALPENA         CLOUDY    66  62  87 SE6       29.93F
6HR MIN TEMP:  66; 6HR MAX TEMP:  84; 6HR PCP:  0.12;

BEAVER ISLAND  PTSUNNY   65  60  86 SW10G18   29.89S
6HR MIN TEMP:  60; 6HR MAX TEMP:  71;

CADILLAC       CLOUDY    72  64  75 S8        29.93F
CHARLEVOIX     PTSUNNY   69  64  85 W6        29.91S
6HR MIN TEMP:  65; 6HR MAX TEMP:  75;

FRANKFORT      PTSUNNY   66  58  73 W3        29.89S
GAYLORD        CLOUDY    69  69 100 S5        29.93S
6HR MIN TEMP:  64; 6HR MAX TEMP:  75; 6HR PCP:  0.46;

GRAYLING       CLOUDY    67  64  90 S7        29.95S
6HR MIN TEMP:  63; 6HR MAX TEMP:  76;

HARBOR SPRINGS CLOUDY    73  64  73 S8G17     29.89S
HOUGHTON LAKE  CLOUDY    67  63  87 S6        29.94F
6HR MIN TEMP:  67; 6HR MAX TEMP:  82; 6HR PCP:  0.07;

MANISTEE       PTSUNNY   70  57  64 W13       29.91S
OSCODA         CLOUDY    73  63  71 SE6       29.92F
PELLSTON       CLOUDY    74  66  76 S5        29.89F
6HR MIN TEMP:  68; 6HR MAX TEMP:  75; 6HR PCP: TRACE;

ROGERS CITY    HVY RAIN  70  65  86 S7        29.93R
TRAVERSE CITY  PTSUNNY   78  64  61 CALM      29.87F
6HR MIN TEMP:  68; 6HR MAX TEMP:  80; 6HR PCP:  0.02;

$$
MIZ007>008-015-300100-
EASTERN UPPER MICHIGAN

CITY           SKY/WX    TMP DP  RH WIND       PRES   REMARKS
KINROSS        CLOUDY    70  64  83 S6        29.88F
6HR MIN TEMP:  64; 6HR MAX TEMP:  72;

MACKINAC ISLAN CLOUDY    70  63  78 S5        29.88F
6HR MIN TEMP:  61; 6HR MAX TEMP:  71; 6HR PCP:  0.01;

NEWBERRY       PTSUNNY   65  61  88 S10       29.87S
6HR MIN TEMP:  60; 6HR MAX TEMP:  68;

S. S. MARIE    CLOUDY    65  59  81 E7        29.87F
6HR MIN TEMP:  64; 6HR MAX TEMP:  67; 6HR PCP:  0.05;

MUNISING         N/A     60  58  92 E5        29.87S
6HR MIN TEMP:  59; 6HR MAX TEMP:  76; 6HR PCP:  0.80;

$$
MIZ004>006-011>014-085-300100-
CENTRAL UPPER MICHIGAN

CITY           SKY/WX    TMP DP  RH WIND       PRES   REMARKS
MANISTIQUE     FOG       51  50  95 S7        29.86S VSB 1/4
6HR MIN TEMP:  50; 6HR MAX TEMP:  57;

ESCANABA       CLOUDY    68  61  77 SW9       29.86R
6HR MIN TEMP:  57; 6HR MAX TEMP:  68;

MENOMINEE      CLOUDY    72  61  68 SW9G17    29.83S
6HR MIN TEMP:  72; 6HR MAX TEMP:  79;

SAWYER-GWINN   CLOUDY    64  61  88 E7        29.88R
$$
MIZ001>003-009>011-084-300100-
WESTERN UPPER MICHIGAN

CITY           SKY/WX    TMP DP  RH WIND       PRES   REMARKS
IRON MOUNTAIN  CLOUDY    71  61  70 NW6       29.85R
6HR MIN TEMP:  71; 6HR MAX TEMP:  79; 6HR PCP: TRACE;

HOUGHTON       CLOUDY    54  51  90 N10       29.92R
6HR MIN TEMP:  51; 6HR MAX TEMP:  66; 6HR PCP:  0.17;

COPPER HARBOR    N/A     51  49  92 N15       29.91R
6HR MIN TEMP:  51; 6HR MAX TEMP:  63; 6HR PCP:  0.02;

IRONWOOD       CLOUDY    55  54  94 N6        29.94R
6HR MIN TEMP:  55; 6HR MAX TEMP:  68;

$$

ABBREVIATIONS USED IN REMARKS
   TC - TEMPERATURE IN CELSIUS
  WCI - WIND CHILL INDEX
   HX - HEAT INDEX
  VSB - VISIBILITY



USA.gov is the U.S. government's official web portal to all federal, state and local government web resources and services.